Preview of NWS' New Version of Forecast
This preview is not operational and should not be used for support decisions.

Regional Weather Roundup (RWR)

Issued by National Weather Service (NWS)

                            
000
ASUS44 KJAN 191510
RWRMS 

MISSISSIPPI HOURLY WEATHER ROUNDUP
NATIONAL WEATHER SERVICE JACKSON MS
1000 AM CDT THU SEP 19 2019

NOTE: "FAIR: INDICATES FEW OR NO CLOUDS BELOW 12,000 FEET WITH NO
SIGNIFICANT WEATHER AND/OR OBSTRUCTIONS TO VISIBILITY.

MSZ001>002-007>008-010>013-018>021-025>028-034>036-191600-
NORTHWEST MISSISSIPPI
  
CITY           SKY/WX    TMP DP  RH WIND       PRES   REMARKS
BATESVILLE     FAIR      84  72  65 VRB7      30.04R                  
CLARKSDALE       N/A     84  73  70 SE9       30.02R HX  91           
CLEVELAND      FAIR      86  71  59 E6        30.01R HX  92           
GREENWOOD      NOT AVBL                                               
GREENVILLE     FAIR      83  71  67 CALM      30.01R                  
OLIVE BRANCH   SUNNY     84  70  61 SE9G17    30.04R                  
OXFORD         FAIR      81  70  69 SE14G20   30.06R                  
TUNICA           N/A     82  70  65 SE8       30.03R                  
WINONA         FAIR      81  71  73 SE8       30.04R                  
$$

MSZ003>006-009-014>017-022>024-029>033-037>039-191600-
NORTHEAST MISSISSIPPI
  
CITY           SKY/WX    TMP DP  RH WIND       PRES   REMARKS
ABERDEEN       CLOUDY    81  63  54 SE12G21   30.09R                  
COLUMBUS AFB   PTSUNNY   82  71  69 SE15      30.07R                  
CORINTH        FAIR      82  68  61 SE16G23   30.08R                  
GOLDN TRIANGLE CLOUDY    81  72  74 SE14G23   30.08R                  
STARKVILLE     CLOUDY    79  70  73 SE13G20   30.08R                  
TUPELO         PTSUNNY   82  69  64 SE15G23   30.07R                  
$$

MSZ040-058-191600-
CENTRAL MISSISSIPPI
  
CITY           SKY/WX    TMP DP  RH WIND       PRES   REMARKS
JACKSON INTL   FAIR      87  70  56 VRB5      30.01S HX  92           
JACKSON HAWKNS FAIR      83  71  67 E6        30.02R                  
MADISON        FAIR      82  70  65 NE3       30.03R                  
MERIDIAN KEY   CLOUDY    80  72  76 SE9       30.07R                  
MERIDIAN NAS   CLOUDY    78  71  79 SE10      30.08R                  
RAYMOND        FAIR      84  75  74 CALM      30.01S HX  92           
VICKSBURG VKS  SUNNY     84  75  74 E6        30.01R HX  92           
$$

MSZ059>079-191600-
SOUTH MISSISSIPPI
  
CITY           SKY/WX    TMP DP  RH WIND       PRES   REMARKS
BROOKHAVEN     FAIR      82  72  69 CALM      30.05R                  
HATTIESBURG    FAIR      83  71  67 E7        30.03R                  
LAUREL         SUNNY     83  72  68 E12       30.04R                  
MCCOMB         FAIR      80  71  74 CALM      30.04R                  
NATCHEZ        FAIR      81  71  71 SE5       30.03R                  
PINE BELT      FAIR      84  73  69 E8        30.04  HX  90           
$$

MSZ080>082-191600-
COASTAL MISSISSIPPI
  
CITY           SKY/WX    TMP DP  RH WIND       PRES   REMARKS
BAY ST LOUIS   MOSUNNY   84  72  65 CALM      30.02R                  
BILOXI         FAIR      87  72  61 SE8       30.02R HX  94           
PASCAGOULA     NOT AVBL                                               
GULFPORT       NOT AVBL                                               
$$

LAZ007>009-015>016-023>026-191600-
NORTHEAST LOUISIANA
  
CITY           SKY/WX    TMP DP  RH WIND       PRES   REMARKS
BASTROP        FAIR      85  71  61 S3        30.02R HX  90           
TALLULAH/VBURG FAIR      87  70  56 E5        30.00R HX  92           
VIDALIA        FAIR      82  73  73 E7        30.01R                  
$$